Notices

What's New in latest Release from April 7th, 2021:

- Updated Glossary, including Speed of Maximum Gust, and Total Hourly Precipitation

- Updated national and regional climate services offices contacts and prices information

- Addition of station inventory lists for 1981-2010, 1971-2000, and 1961-1990 Normals.

If you haven't already, please take our survey and provide feedback about our website: https://eccc.sondage-survey.ca/f/LanguageSelection.aspx?s=442ca660-fcf1-47c0-95a9-59707d6fd709

Hourly Data Report for November 16, 2003

TORONTO CITY
ONTARIO

43°40'00.000" N
79°24'00.000" W
112.50 m
6158355
71508
XTO

Download Data

Hourly Data (November 2003)
Hourly Data Report for November 16, 2003
TIME
LST
Temp Definition
°C
Dew Point Definition
°C
Rel Hum Definition
%
Precip. Amount Definition
mm

Wind Dir Definition
10's deg

Wind Spd Definition
km/h
Visibility Definition
km
Stn Press Definition
kPa
Hmdx Definition


Wind Chill Definition


Weather Definition


00:00 4.3 1.8 84   LegendMM LegendMM LegendMM 100.64     LegendNANA
01:00 4.1 1.8 85   LegendMM LegendMM LegendMM 100.64     LegendNANA
02:00 4.1 2.6 90   LegendMM LegendMM LegendMM 100.65     LegendNANA
03:00 4.4 3.4 93   LegendMM LegendMM LegendMM 100.70     LegendNANA
04:00 4.6 4.0 96   LegendMM LegendMM LegendMM 100.69     LegendNANA
05:00 4.5 3.9 96   LegendMM LegendMM LegendMM 100.70     LegendNANA
06:00 4.5 4.1 97   LegendMM LegendMM LegendMM 100.72     LegendNANA
07:00 4.6 4.2 97   LegendMM LegendMM LegendMM 100.74     LegendNANA
08:00 4.8 4.5 98   LegendMM LegendMM LegendMM 100.78     LegendNANA
09:00 5.1 4.8 98   LegendMM LegendMM LegendMM 100.81     LegendNANA
10:00 5.5 5.2 98   LegendMM LegendMM LegendMM 100.81     LegendNANA
11:00 5.7 5.4 98   LegendMM LegendMM LegendMM 100.80     LegendNANA
12:00 5.8 5.4 97   LegendMM LegendMM LegendMM 100.76     LegendNANA
13:00 5.7 5.3 97   LegendMM LegendMM LegendMM 100.73     LegendNANA
14:00 5.6 5.0 96   LegendMM LegendMM LegendMM 100.72     LegendNANA
15:00 5.6 4.7 94   LegendMM LegendMM LegendMM 100.71     LegendNANA
16:00 5.7 4.8 94   LegendMM LegendMM LegendMM 100.72     LegendNANA
17:00 5.5 4.8 95   LegendMM LegendMM LegendMM 100.73     LegendNANA
18:00 5.4 4.8 96   LegendMM LegendMM LegendMM 100.76     LegendNANA
19:00 5.5 4.9 96   LegendMM LegendMM LegendMM 100.79     LegendNANA
20:00 5.7 5.0 95   LegendMM LegendMM LegendMM 100.76     LegendNANA
21:00 5.7 5.0 95   LegendMM LegendMM LegendMM 100.72     LegendNANA
22:00 5.5 4.8 95   LegendMM LegendMM LegendMM 100.67     LegendNANA
23:00 5.0 3.5 90   LegendMM LegendMM LegendMM 100.66     LegendNANA

Notes on Data Quality.

Legend

  • E = Estimated
  • M = Missing
  • NA = Not Available*
  • [empty] = Indicates an unobserved value
Date modified: